KC1RCJ Weather Reports


Display with metric or nautical units.
time (UTC)temp
F
wind
direction
speed
MPH
gust
MPH
rain 1hr
in
rain 24hr
in
rain mn
in
humidity
%
barometer
mb
20260504221529 61 199 2.0 7.0 0.00 0.01 0.01 57 1005.4
20260504220032 60 180 0.0 9.0 0.00 0.01 0.01 58 1005.3
20260504214529 60 188 2.0 10.0 0.00 0.01 0.01 57 1005.0
20260504213030 61 197 5.0 12.0 0.00 0.01 0.01 57 1004.9
20260504211536 60 222 3.0 13.0 0.00 0.01 0.01 58 1004.9
20260504210028 60 201 2.0 11.0 0.00 0.01 0.01 59 1004.8
20260504204529 60 194 8.0 17.0 0.00 0.01 0.01 58 1004.8
20260504203032 60 186 3.0 12.0 0.00 0.01 0.01 58 1004.7
20260504201530 60 221 7.0 15.0 0.00 0.01 0.01 60 1004.6
20260504200030 59 199 6.0 13.0 0.00 0.01 0.01 62 1004.7
20260504194528 58 150 3.0 11.0 0.00 0.01 0.01 65 1004.7
20260504193027 57 240 5.0 9.0 0.00 0.01 0.01 68 1004.8
20260504191528 55 206 3.0 7.0 0.01 0.01 0.01 74 1005.1
20260504190032 53 202 3.0 8.0 0.01 0.01 0.01 77 1005.4
20260504184542 52 352 3.0 8.0 0.01 0.03 0.01 76 1005.7
20260504183030 52 305 4.0 8.0 0.01 0.03 0.01 74 1005.9
20260504181534 53 315 1.0 9.0 0.00 0.02 0.00 68 1005.7
20260504180030 54 199 6.0 13.0 0.00 0.02 0.00 60 1005.6
20260504174528 53 245 6.0 14.0 0.00 0.07 0.00 61 1005.2
20260504173028 53 219 5.0 15.0 0.00 0.07 0.00 62 1005.2
20260504171530 53 198 9.0 18.0 0.00 0.07 0.00 68 1005.0
20260504081532 39 0 2.0 8.0 0.00 0.71 0.00 75 1006.1
20260504044530 41 319 5.0 10.0 0.00 0.82 0.00 70 1004.9
20260504043031 41 302 2.0 9.0 0.00 0.82 0.00 70 1004.8
20260504041534 41 303 1.0 10.0 0.00 0.82 0.00 68 1004.7
20260504040034 42 319 5.0 13.0 0.00 0.82 0.00 66 1004.6
20260504034531 43 278 8.0 15.0 0.00 0.82 0.82 64 1004.4
20260504033028 43 275 9.0 16.0 0.00 0.82 0.82 63 1004.4
20260504031528 43 315 11.0 18.0 0.00 0.82 0.82 62 1004.2
20260504030033 43 286 9.0 14.0 0.00 0.82 0.82 63 1004.1
20260504024532 43 286 8.0 14.0 0.00 0.82 0.82 63 1003.9
20260504023034 44 285 10.0 16.0 0.00 0.82 0.82 63 1003.9
20260504021530 44 285 11.0 18.0 0.00 0.82 0.82 63 1003.8
20260504020028 44 292 9.0 21.0 0.00 0.82 0.82 65 1003.8
20260504014534 44 276 10.0 17.0 0.00 0.82 0.82 67 1003.4
20260504013032 45 293 8.0 18.0 0.00 0.82 0.82 68 1003.2
20260504011530 45 311 10.0 15.0 0.00 0.82 0.82 73 1002.9
20260504010028 45 289 10.0 16.0 0.00 0.82 0.82 80 1002.8
20260504004529 44 304 3.0 8.0 0.00 0.82 0.82 86 1002.6
20260504003032 45 273 5.0 9.0 0.00 0.82 0.82 85 1002.2
20260504001537 45 293 3.0 9.0 0.00 0.82 0.82 86 1002.1
20260504000032 45 292 3.0 10.0 0.00 0.82 0.82 86 1001.9
20260503234541 45 300 5.0 9.0 0.00 0.82 0.82 86 1001.7
20260503233036 46 286 6.0 14.0 0.00 0.82 0.82 84 1001.6
20260503231534 46 311 8.0 13.0 0.00 0.82 0.82 84 1001.4
20260503230032 46 302 11.0 17.0 0.00 0.82 0.82 82 1001.2
20260503224529 46 318 13.0 17.0 0.00 0.82 0.82 82 1001.2
20260503223032 46 325 17.0 26.0 0.00 0.82 0.82 81 1001.0